Location: Mexico
(19.4000°N, 99.1500°W)
Time: 09:38:18
(UTC-06:00)

ISS - Pass Details

Date: 14 February 2018
Orbit: 403 x 406 km, 51.6° (Epoch: 26 February)

Event Time Altitude Azimuth Distance (km) Brightness Sun altitude
Rises 19:13:31 0° 330° (NNW) 2,308 0.3 -9.5°
Reaches altitude 10° 19:15:41 10° 339° (NNW) 1,449 -0.9 -10.0°
Maximum altitude 19:18:45 38° 49° (NE) 627 -3.3 -10.7°
Enters shadow 19:21:26 13° 117° (ESE) 1,308 -1.7 -11.3°
